Погода в Бурленге

Швеция     60°28′41″N   15°24′34″E
темп.,
°C
ветер,
м/с
пор.,
м/с
влажн.,
%
обл.,
%
осадки,
мм/ч
давл.,
гПа
погр.,
м
22 сентября, ср
ср2223:00+6вюв0099100 0.0 102216
02:00+6ююв119894 0.0 102224
05:00+6ююв1298100 0.0 102140
08:00+6ю1497100 0.0 1021154
11:00+10ююз4788100 0.0 1019538
14:00+14ю586518 0.0 1016923
17:00+14ююз51076100 0.0 10131153
20:00+12ю41085100 0.0 1011671
23 сентября, чт
чт2323:00+12ююз41088100 0.0 1008802
02:00+12ю41089100 0.0 1004733
05:00+11ююз41095100 0.4 1000885
08:00+11юз41190100 0.4 997773
11:00+10ю0195100 2.0 992106
14:00+10зюз3580100 2.4 990859
17:00+8зсз3790100 0.4 986857
20:00+6ссз61695100 2.1 9881377
24 сентября, пт
пт2423:00+8сз72083100 0.9 9901820
02:00+7ссз8207353 0.9 9921494
05:00+6ссз6166186 0.0 9961120
08:00+6сз51264100 0.0 998937
11:00+8ссз4657100 0.0 999879
14:00+10зсз3453100 0.0 998980
17:00+10юз255278 0.0 9961070
20:00+6ююз227430 0.0 99629
25 сентября, сб
сб2523:00+4ю22895 0.0 99546
02:00+4зюз11945 0.0 99610
05:00+4зюз11970 0.0 99616
08:00+4сз22930 0.0 99979
11:00+10сз35665 0.0 1002537
14:00+13с46455 0.0 10061343
17:00+12ссв23525 0.0 1010332
20:00+6ю227170 0.0 101310
26 сентября, вс
вс2623:00+6ю22735 0.0 101532
02:00+4ю11816 0.0 101711
05:00+4ю229095 0.0 101823
08:00+6ю128932 0.0 101962
11:00+13ююз355882 0.0 1019483
14:00+17ююз354732 0.0 1020810
17:00+16ю365848 0.0 1020429
20:00+10ю2284100 0.0 102132